Time,TemperatureF,DewpointF,PressureIn,WindDirection,WindDirectionDegrees,WindSpeedMPH,WindSpeedGustMPH,Humidity,HourlyPrecipIn,Conditions,Clouds,dailyrainin,SoftwareType,DateUTC
2013-04-12 00:00:00,47.6,46.0,29.82,NW,304,3.0,3.0,94,0.00,,,0.00,,2013-04-12 07:00:00,
2013-04-12 00:10:00,47.0,45.0,29.82,NW,304,0.0,0.0,94,0.00,,,0.00,,2013-04-12 07:10:00,
2013-04-12 00:20:00,47.1,45.0,29.82,NW,304,2.0,3.0,94,0.00,,,0.00,,2013-04-12 07:20:00,
2013-04-12 00:30:00,46.7,45.0,29.83,WSW,252,9.0,10.0,95,0.00,,,0.00,,2013-04-12 07:30:00,
2013-04-12 00:40:00,46.4,45.0,29.82,West,281,7.0,8.0,95,0.00,,,0.00,,2013-04-12 07:40:00,
2013-04-12 00:50:00,46.3,45.0,29.82,West,271,13.0,13.0,96,0.00,,,0.00,,2013-04-12 07:50:00,
2013-04-12 01:00:00,46.4,45.0,29.82,WNW,298,9.0,9.0,96,0.00,,,0.00,,2013-04-12 08:00:00,
2013-04-12 01:10:00,46.6,46.0,29.83,NW,323,5.0,6.0,96,0.00,,,0.00,,2013-04-12 08:10:00,
2013-04-12 01:20:00,46.0,45.0,29.83,NW,323,1.0,2.0,95,0.00,,,0.00,,2013-04-12 08:20:00,
2013-04-12 01:30:00,45.9,45.0,29.83,NW,323,2.0,3.0,96,0.00,,,0.00,,2013-04-12 08:30:00,
2013-04-12 01:40:00,45.9,45.0,29.83,NW,323,2.0,2.0,96,0.00,,,0.00,,2013-04-12 08:40:00,
2013-04-12 01:50:00,46.0,45.0,29.83,WNW,298,4.0,6.0,96,0.00,,,0.00,,2013-04-12 08:50:00,
2013-04-12 02:00:00,46.2,45.0,29.83,West,275,7.0,8.0,96,0.00,,,0.00,,2013-04-12 09:00:00,
2013-04-12 02:10:00,46.0,45.0,29.83,WNW,284,5.0,6.0,96,0.00,,,0.00,,2013-04-12 09:10:00,
2013-04-12 02:20:00,46.0,45.0,29.82,West,275,9.0,10.0,96,0.00,,,0.00,,2013-04-12 09:20:00,
2013-04-12 02:30:00,46.0,45.0,29.82,West,275,8.0,11.0,97,0.00,,,0.00,,2013-04-12 09:30:00,
2013-04-12 02:40:00,46.0,45.0,29.81,West,272,4.0,7.0,97,0.00,,,0.00,,2013-04-12 09:40:00,
2013-04-12 02:50:00,46.1,45.0,29.81,West,267,0.0,0.0,97,0.00,,,0.00,,2013-04-12 09:50:00,
2013-04-12 03:00:00,46.2,45.0,29.82,West,267,0.0,1.0,97,0.00,,,0.00,,2013-04-12 10:00:00,
2013-04-12 03:10:00,46.1,45.0,29.81,WNW,290,4.0,7.0,97,0.00,,,0.00,,2013-04-12 10:10:00,
2013-04-12 03:20:00,45.6,45.0,29.81,NW,304,3.0,5.0,97,0.00,,,0.00,,2013-04-12 10:20:00,
2013-04-12 03:30:00,45.7,45.0,29.82,WNW,298,4.0,5.0,97,0.00,,,0.00,,2013-04-12 10:30:00,
2013-04-12 03:40:00,45.9,45.0,29.82,WNW,302,2.0,5.0,97,0.00,,,0.00,,2013-04-12 10:40:00,
2013-04-12 03:50:00,45.8,45.0,29.82,WNW,302,5.0,5.0,97,0.00,,,0.00,,2013-04-12 10:50:00,
2013-04-12 04:00:00,45.5,45.0,29.82,WNW,302,3.0,4.0,97,0.00,,,0.00,,2013-04-12 11:00:00,
2013-04-12 04:10:00,45.2,44.0,29.81,NW,321,1.0,3.0,97,0.00,,,0.00,,2013-04-12 11:10:00,
2013-04-12 04:20:00,45.6,45.0,29.81,NNE,16,3.0,3.0,98,0.00,,,0.00,,2013-04-12 11:20:00,
2013-04-12 04:30:00,46.2,46.0,29.81,NNE,21,2.0,3.0,98,0.00,,,0.00,,2013-04-12 11:30:00,
2013-04-12 04:40:00,46.9,46.0,29.81,NNE,21,3.0,4.0,98,0.00,,,0.00,,2013-04-12 11:40:00,
2013-04-12 04:50:00,46.3,46.0,29.81,West,279,3.0,5.0,97,0.00,,,0.00,,2013-04-12 11:50:00,
2013-04-12 05:00:00,46.3,46.0,29.81,West,259,6.0,7.0,97,0.00,,,0.00,,2013-04-12 12:00:00,
2013-04-12 05:10:00,45.7,45.0,29.81,WSW,257,3.0,6.0,97,0.00,,,0.00,,2013-04-12 12:10:00,
2013-04-12 05:20:00,45.6,45.0,29.81,West,270,2.0,4.0,97,0.00,,,0.00,,2013-04-12 12:20:00,
2013-04-12 05:30:00,45.9,45.0,29.82,West,270,1.0,2.0,97,0.00,,,0.00,,2013-04-12 12:30:00,
2013-04-12 05:40:00,45.5,45.0,29.82,West,270,0.0,0.0,97,0.00,,,0.00,,2013-04-12 12:40:00,
2013-04-12 05:50:00,45.2,44.0,29.82,West,270,0.0,0.0,97,0.00,,,0.00,,2013-04-12 12:50:00,
2013-04-12 06:00:00,46.1,46.0,29.81,West,270,0.0,0.0,98,0.00,,,0.00,,2013-04-12 13:00:00,
2013-04-12 06:10:00,46.1,45.0,29.81,West,270,0.0,0.0,97,0.00,,,0.00,,2013-04-12 13:10:00,
2013-04-12 06:20:00,45.7,45.0,29.82,West,270,3.0,3.0,97,0.00,,,0.00,,2013-04-12 13:20:00,
2013-04-12 06:30:00,45.8,45.0,29.81,West,270,0.0,2.0,98,0.00,,,0.00,,2013-04-12 13:30:00,
2013-04-12 06:40:00,46.1,46.0,29.81,West,270,0.0,0.0,98,0.00,,,0.00,,2013-04-12 13:40:00,
2013-04-12 06:50:00,46.1,45.0,29.82,West,270,0.0,1.0,97,0.00,,,0.00,,2013-04-12 13:50:00,
2013-04-12 07:00:00,46.3,46.0,29.82,West,270,0.0,0.0,98,0.00,,,0.00,,2013-04-12 14:00:00,
2013-04-12 07:10:00,46.8,46.0,29.83,NNE,33,0.0,0.0,98,0.00,,,0.00,,2013-04-12 14:10:00,
2013-04-12 07:20:00,46.9,46.0,29.83,NNE,33,0.0,0.0,97,0.00,,,0.00,,2013-04-12 14:20:00,
2013-04-12 07:30:00,46.2,45.0,29.83,West,265,3.0,4.0,97,0.00,,,0.00,,2013-04-12 14:30:00,
2013-04-12 07:40:00,46.3,46.0,29.83,West,265,0.0,0.0,97,0.00,,,0.00,,2013-04-12 14:40:00,
2013-04-12 07:50:00,46.8,46.0,29.84,West,265,0.0,0.0,98,0.00,,,0.00,,2013-04-12 14:50:00,
2013-04-12 08:00:00,47.6,47.0,29.84,West,265,0.0,0.0,98,0.00,,,0.00,,2013-04-12 15:00:00,
2013-04-12 08:10:00,48.0,47.0,29.85,West,265,3.0,3.0,98,0.00,,,0.00,,2013-04-12 15:10:00,
2013-04-12 08:20:00,48.3,47.0,29.85,West,265,0.0,1.0,97,0.00,,,0.00,,2013-04-12 15:20:00,
2013-04-12 08:30:00,49.0,48.0,29.85,West,265,0.0,0.0,97,0.00,,,0.00,,2013-04-12 15:30:00,
2013-04-12 08:40:00,49.7,49.0,29.85,West,265,0.0,0.0,97,0.00,,,0.00,,2013-04-12 15:40:00,
2013-04-12 08:50:00,50.3,49.0,29.85,West,265,0.0,1.0,97,0.00,,,0.00,,2013-04-12 15:50:00,
2013-04-12 09:00:00,51.2,50.0,29.85,West,265,0.0,0.0,97,0.00,,,0.00,,2013-04-12 16:00:00,
2013-04-12 09:10:00,52.0,51.0,29.85,West,265,0.0,1.0,97,0.00,,,0.00,,2013-04-12 16:10:00,
2013-04-12 09:20:00,51.9,51.0,29.86,WSW,252,4.0,5.0,95,0.00,,,0.00,,2013-04-12 16:20:00,
2013-04-12 09:30:00,51.7,50.0,29.86,West,274,3.0,5.0,95,0.00,,,0.00,,2013-04-12 16:30:00,
2013-04-12 09:40:00,52.8,51.0,29.86,West,274,3.0,3.0,95,0.00,,,0.00,,2013-04-12 16:40:00,
2013-04-12 09:50:00,53.7,52.0,29.85,West,269,3.0,5.0,94,0.00,,,0.00,,2013-04-12 16:50:00,
2013-04-12 10:00:00,54.6,52.0,29.85,WNW,294,3.0,4.0,92,0.00,,,0.00,,2013-04-12 17:00:00,
2013-04-12 10:10:00,55.8,52.0,29.85,West,275,3.0,5.0,88,0.00,,,0.00,,2013-04-12 17:10:00,
2013-04-12 10:20:00,56.9,51.0,29.85,WNW,284,4.0,6.0,82,0.00,,,0.00,,2013-04-12 17:20:00,
2013-04-12 10:30:00,57.8,52.0,29.86,West,268,3.0,4.0,80,0.00,,,0.00,,2013-04-12 17:30:00,
2013-04-12 10:40:00,58.6,51.0,29.85,WSW,240,6.0,6.0,77,0.00,,,0.00,,2013-04-12 17:40:00,
2013-04-12 10:50:00,60.0,52.0,29.85,WSW,242,2.0,4.0,74,0.00,,,0.00,,2013-04-12 17:50:00,
2013-04-12 11:00:00,61.3,52.0,29.85,West,277,5.0,6.0,72,0.00,,,0.00,,2013-04-12 18:00:00,
2013-04-12 11:12:00,62.0,52.0,29.85,West,269,9.0,9.0,69,0.00,,,0.00,,2013-04-12 18:12:00,
2013-04-12 11:24:00,61.7,51.0,29.86,West,274,7.0,9.0,67,0.00,,,0.00,,2013-04-12 18:24:00,
2013-04-12 12:26:00,56.3,50.0,29.84,West,269,15.0,19.0,80,0.00,,,0.00,,2013-04-12 19:26:00,
2013-04-12 12:40:00,58.2,51.0,29.83,West,271,17.0,18.0,77,0.00,,,0.00,,2013-04-12 19:40:00,
2013-04-12 12:50:00,60.1,51.0,29.83,West,275,17.0,18.0,71,0.00,,,0.00,,2013-04-12 19:50:00,
2013-04-12 13:00:00,61.7,51.0,29.83,WNW,285,19.0,20.0,69,0.00,,,0.00,,2013-04-12 20:00:00,
2013-04-12 13:10:00,61.1,51.0,29.82,West,267,17.0,21.0,70,0.00,,,0.00,,2013-04-12 20:10:00,
2013-04-12 13:20:00,61.6,51.0,29.82,WNW,286,19.0,21.0,69,0.00,,,0.00,,2013-04-12 20:20:00,
2013-04-12 13:30:00,60.6,51.0,29.81,WNW,287,19.0,22.0,70,0.00,,,0.00,,2013-04-12 20:30:00,
2013-04-12 13:40:00,57.7,50.0,29.82,West,278,20.0,24.0,75,0.00,,,0.00,,2013-04-12 20:40:00,
2013-04-12 13:50:00,55.6,49.0,29.81,West,269,24.0,26.0,79,0.00,,,0.00,,2013-04-12 20:50:00,
2013-04-12 14:00:00,55.4,49.0,29.81,West,273,19.0,24.0,80,0.00,,,0.00,,2013-04-12 21:00:00,
2013-04-12 14:10:00,56.6,50.0,29.80,West,281,19.0,24.0,79,0.00,,,0.00,,2013-04-12 21:10:00,
2013-04-12 14:20:00,55.8,50.0,29.81,WNW,282,18.0,27.0,80,0.00,,,0.00,,2013-04-12 21:20:00,
2013-04-12 14:30:00,54.2,49.0,29.81,West,280,25.0,30.0,82,0.00,,,0.00,,2013-04-12 21:30:00,
2013-04-12 14:40:00,55.6,50.0,29.81,West,277,23.0,25.0,81,0.00,,,0.00,,2013-04-12 21:40:00,
2013-04-12 14:50:00,57.1,51.0,29.80,West,267,19.0,23.0,81,0.00,,,0.00,,2013-04-12 21:50:00,
2013-04-12 15:00:00,57.3,51.0,29.80,WNW,284,21.0,21.0,80,0.00,,,0.00,,2013-04-12 22:00:00,
2013-04-12 15:10:00,55.2,49.0,29.80,WNW,282,26.0,28.0,80,0.00,,,0.00,,2013-04-12 22:10:00,
2013-04-12 15:20:00,53.4,49.0,29.80,West,277,23.0,33.0,85,0.00,,,0.00,,2013-04-12 22:20:00,
2013-04-12 15:30:00,52.5,48.0,29.79,West,281,23.0,34.0,85,0.00,,,0.00,,2013-04-12 22:30:00,
2013-04-12 15:40:00,53.0,49.0,29.79,West,271,28.0,33.0,87,0.00,,,0.00,,2013-04-12 22:40:00,
2013-04-12 15:50:00,53.6,49.0,29.78,West,278,24.0,27.0,85,0.00,,,0.00,,2013-04-12 22:50:00,
2013-04-12 16:00:00,55.4,50.0,29.78,West,275,20.0,24.0,82,0.00,,,0.00,,2013-04-12 23:00:00,
2013-04-12 16:10:00,55.7,50.0,29.78,West,271,21.0,26.0,82,0.00,,,0.00,,2013-04-12 23:10:00,
2013-04-12 16:20:00,54.8,49.0,29.78,West,281,22.0,24.0,82,0.00,,,0.00,,2013-04-12 23:20:00,
2013-04-12 16:30:00,54.6,49.0,29.78,WNW,285,22.0,25.0,82,0.00,,,0.00,,2013-04-12 23:30:00,
2013-04-12 16:40:00,54.1,49.0,29.77,West,277,18.0,26.0,84,0.00,,,0.00,,2013-04-12 23:40:00,
2013-04-12 16:50:00,54.7,50.0,29.77,West,281,20.0,22.0,83,0.00,,,0.00,,2013-04-12 23:50:00,
2013-04-12 17:00:00,54.0,49.0,29.77,West,276,24.0,26.0,84,0.00,,,0.00,,2013-04-13 00:00:00,
2013-04-12 17:10:00,53.2,49.0,29.77,West,277,31.0,31.0,85,0.00,,,0.00,,2013-04-13 00:10:00,
2013-04-12 17:20:00,52.0,48.0,29.77,West,281,29.0,30.0,87,0.00,,,0.00,,2013-04-13 00:20:00,
2013-04-12 17:30:00,51.7,48.0,29.77,WNW,292,32.0,35.0,88,0.00,,,0.00,,2013-04-13 00:30:00,
2013-04-12 17:40:00,51.4,48.0,29.77,West,281,31.0,33.0,88,0.00,,,0.00,,2013-04-13 00:40:00,
2013-04-12 17:50:00,50.8,48.0,29.77,WNW,284,24.0,32.0,90,0.00,,,0.00,,2013-04-13 00:50:00,
2013-04-12 18:00:00,51.3,48.0,29.77,WNW,282,21.0,29.0,89,0.00,,,0.00,,2013-04-13 01:00:00,
2013-04-12 18:10:00,51.3,48.0,29.77,West,280,23.0,30.0,89,0.00,,,0.00,,2013-04-13 01:10:00,
2013-04-12 18:20:00,50.1,47.0,29.78,West,274,30.0,32.0,90,0.00,,,0.00,,2013-04-13 01:20:00,
2013-04-12 18:30:00,49.3,47.0,29.78,WNW,292,26.0,35.0,92,0.00,,,0.00,,2013-04-13 01:30:00,
2013-04-12 18:40:00,49.2,47.0,29.78,West,279,29.0,29.0,93,0.00,,,0.00,,2013-04-13 01:40:00,
2013-04-12 18:50:00,48.8,47.0,29.78,West,269,25.0,31.0,93,0.00,,,0.00,,2013-04-13 01:50:00,
2013-04-12 19:00:00,48.1,47.0,29.79,WNW,286,22.0,33.0,95,0.00,,,0.00,,2013-04-13 02:00:00,
2013-04-12 19:10:00,47.8,47.0,29.80,WNW,288,26.0,30.0,96,0.00,,,0.00,,2013-04-13 02:10:00,
2013-04-12 19:20:00,47.6,47.0,29.80,WNW,284,21.0,27.0,96,0.00,,,0.00,,2013-04-13 02:20:00,
2013-04-12 19:30:00,47.5,46.0,29.80,WNW,293,17.0,23.0,96,0.00,,,0.00,,2013-04-13 02:30:00,
2013-04-12 19:40:00,47.4,46.0,29.80,West,281,14.0,14.0,96,0.00,,,0.00,,2013-04-13 02:40:00,
2013-04-12 19:50:00,47.3,46.0,29.80,WNW,285,8.0,11.0,96,0.00,,,0.00,,2013-04-13 02:50:00,
2013-04-12 20:00:00,47.3,46.0,29.80,WNW,285,4.0,5.0,96,0.00,,,0.00,,2013-04-13 03:00:00,
2013-04-12 20:10:00,47.5,47.0,29.80,WNW,286,4.0,4.0,97,0.00,,,0.00,,2013-04-13 03:10:00,
2013-04-12 20:20:00,47.5,46.0,29.81,WNW,286,0.0,0.0,96,0.00,,,0.00,,2013-04-13 03:20:00,
2013-04-12 20:30:00,47.5,46.0,29.81,WNW,286,2.0,2.0,96,0.00,,,0.00,,2013-04-13 03:30:00,
2013-04-12 20:40:00,47.5,46.0,29.82,WNW,286,0.0,0.0,96,0.00,,,0.00,,2013-04-13 03:40:00,
2013-04-12 20:50:00,47.7,47.0,29.82,WNW,286,3.0,3.0,97,0.00,,,0.00,,2013-04-13 03:50:00,
2013-04-12 21:00:00,47.7,47.0,29.83,ESE,107,5.0,7.0,96,0.00,,,0.00,,2013-04-13 04:00:00,
2013-04-12 21:10:00,47.6,47.0,29.83,ESE,121,8.0,9.0,96,0.00,,,0.00,,2013-04-13 04:10:00,
2013-04-12 21:20:00,47.3,46.0,29.83,ESE,113,9.0,10.0,96,0.00,,,0.00,,2013-04-13 04:20:00,
2013-04-12 21:30:00,47.3,47.0,29.84,SE,132,11.0,14.0,97,0.00,,,0.00,,2013-04-13 04:30:00,
2013-04-12 21:40:00,47.4,47.0,29.84,SE,138,13.0,17.0,97,0.00,,,0.00,,2013-04-13 04:40:00,
2013-04-12 21:50:00,47.4,47.0,29.84,SSE,157,8.0,15.0,97,0.00,,,0.00,,2013-04-13 04:50:00,
2013-04-12 22:00:00,47.4,47.0,29.84,SE,136,14.0,14.0,97,0.00,,,0.00,,2013-04-13 05:00:00,
2013-04-12 22:10:00,47.3,47.0,29.84,SE,126,9.0,14.0,97,0.00,,,0.00,,2013-04-13 05:10:00,
2013-04-12 22:20:00,47.3,47.0,29.84,SE,145,11.0,14.0,98,0.00,,,0.00,,2013-04-13 05:20:00,
2013-04-12 22:30:00,47.5,47.0,29.85,SE,144,10.0,13.0,98,0.00,,,0.00,,2013-04-13 05:30:00,
2013-04-12 22:40:00,47.5,47.0,29.85,SE,130,15.0,15.0,98,0.00,,,0.00,,2013-04-13 05:40:00,
2013-04-12 22:50:00,47.4,47.0,29.84,SE,130,13.0,15.0,98,0.00,,,0.00,,2013-04-13 05:50:00,
2013-04-12 23:00:00,47.0,46.0,29.85,ESE,118,12.0,13.0,98,0.00,,,0.00,,2013-04-13 06:00:00,
2013-04-12 23:10:00,47.0,46.0,29.85,ESE,119,15.0,16.0,98,0.00,,,0.00,,2013-04-13 06:10:00,
2013-04-12 23:21:00,46.8,46.0,29.85,ESE,117,10.0,11.0,98,0.00,,,0.00,,2013-04-13 06:21:00,
2013-04-12 23:31:00,46.5,46.0,29.85,ESE,115,8.0,9.0,98,0.00,,,0.00,,2013-04-13 06:31:00,
2013-04-12 23:41:00,46.3,46.0,29.85,ESE,109,7.0,7.0,98,0.00,,,0.00,,2013-04-13 06:41:00,
2013-04-12 23:52:00,46.3,46.0,29.85,East,93,6.0,6.0,98,0.00,,,0.00,,2013-04-13 06:52:00,